Flag for U.S.A. Weather past 2 weeks in Peoria, Illinois, U.S.A.

Now
31 °F

Overcast.


Feels Like: 25 °F
Forecast: 26 / 40 °F
Wind: 6 mph from East

Location: Greater Peoria Regional Airport

Current Time: Jan 27, 2015 at 8:30:40 PM

Latest Report: Jan 27, 2015 at 7:54 PM


Visibility: 10 mi

Pressure: 30.27 "Hg

Humidity: 76%

Dew point: 24 °F

Location of PeoriaLocation

Historic Weather in Peoria — Graph

°F

Peoria temperature yesterday

Maximum temperature yesterday: 32 °F (at 8:54 PM)
Minimum temperature yesterday: 20 °F (at 3:54 AM)
Average temperature yesterday: 26 °F

Past Weeks' High & Low Weather Summary

 TemperatureHumidityPressure
High49 °F (Jan 24, 2:54 PM)96% (Jan 16, 8:54 AM)30.74 "Hg (Jan 16, 8:54 AM)
Low-1 °F (Jan 14, 1:54 AM)54% (Jan 13, 3:54 PM)29.59 "Hg (Jan 25, 3:54 AM)
Average31 °F76%30.09 "Hg
* Reported Jan 12 6:54 PM — Jan 27 6:54 PM, Peoria, Weather by CustomWeather, © 2014

Note: Actual official high and low records may vary slightly from our data, if they occured in-between our weather recording intervals... More about our weather records

Advertising

Peoria weather history for previous 24 hours

 ConditionsComfort  
Time TempWeatherWind HumidityBarometerVisibility
6:54 PM
Jan 27
31 °FOvercast.No wind76%30.27 "Hg10 mi
5:54 PM31 °FOvercast.No wind76%30.27 "Hg10 mi
4:54 PM32 °FOvercast.3 mph75%30.26 "Hg8 mi
3:54 PM32 °FOvercast.3 mph75%30.24 "Hg9 mi
2:54 PM32 °FOvercast.5 mph73%30.23 "Hg9 mi
1:54 PM32 °FOvercast.5 mph75%30.21 "Hg8 mi
12:54 PM33 °FOvercast.3 mph72%30.20 "Hg8 mi
11:54 AM32 °FOvercast.5 mph73%30.20 "Hg8 mi
10:54 AM31 °FOvercast.9 mph79%30.20 "Hg6 mi
9:54 AM31 °FOvercast.7 mph79%30.18 "Hg6 mi
8:54 AM31 °FOvercast.7 mph82%30.15 "Hg5 mi
7:54 AM31 °FIce fog.6 mph85%30.11 "Hg3 mi
6:54 AM31 °FIce fog.5 mph85%30.07 "Hg5 mi
5:54 AM32 °FOvercast.6 mph82%30.05 "Hg5 mi
4:54 AM32 °FIce fog.7 mph85%30.01 "Hg5 mi
3:54 AM31 °FIce fog.7 mph89%30.00 "Hg5 mi
3:03 AM33 °FFog.6 mph85%29.97 "Hg5 mi
2:54 AM32 °FIce fog.6 mph88%29.98 "Hg5 mi
1:54 AM34 °FMostly cloudy.6 mph85%29.96 "Hg7 mi
12:54 AM34 °FFog.3 mph85%29.93 "Hg6 mi
11:54 PM
Jan 26
32 °FIce fog.3 mph88%29.92 "Hg6 mi
10:54 PM32 °FIce fog.No wind92%29.91 "Hg5 mi
9:54 PM32 °FIce fog.No wind92%29.91 "Hg5 mi
8:54 PM32 °FIce fog.No wind92%29.91 "Hg4 mi
Weather by CustomWeather, © 2014

See weather overviewHow to use our weather pages